Location: Unspecified
(0.0000°N, 0.0000°E)
Time: 19:04:22
(UTC+00:00)

Hubble Space Telescope - Pass Details

Date: 07 December 2017
Orbit: 538 x 541 km, 28.5° (Epoch: 10 December)

Event Time Altitude Azimuth Distance (km) Brightness Sun altitude
Exits shadow 03:17:19 14° 120° (ESE) 1,529 3.8 -35.1°
Drops below altitude 10° 03:17:58 10° 120° (ESE) 1,782 4.2 -34.9°
Sets 03:20:14 0° 120° (ESE) 2,673 5.4 -34.5°
